RPA4421 KOKC-KORD

Flight info

Callsign RPA4421
Flight time 1h 39m
Altitude 35000
Route TRUPR3 GTYER WELTS TRTLL6
Aircraft E75L/M-SDE3GILORVW/S

Departure

Time 2026-04-20 23:03
Airport OKC Will Rogers World Airport (KOKC)

Arrival

Time 2026-04-21 00:43
Airport Chicago O'Hare International Airport (KORD)
Time Latitude Longitude Altitude Speed Heading
2026-04-20 22:44 35.39567 -97.59898 1299 ft 0 kts 179°
2026-04-20 22:55 35.39570 -97.59898 1299 ft 2 kts 179°
2026-04-20 22:55 35.39585 -97.59898 1299 ft 2 kts 179°
2026-04-20 22:56 35.39600 -97.59899 1299 ft 2 kts 179°
2026-04-20 22:56 35.39615 -97.59899 1299 ft 2 kts 179°
2026-04-20 22:56 35.39630 -97.59899 1299 ft 2 kts 179°
2026-04-20 22:56 35.39635 -97.59899 1299 ft 0 kts 179°
2026-04-20 22:58 35.39633 -97.59901 1299 ft 0 kts 202°
2026-04-20 22:58 35.39632 -97.59903 1299 ft 0 kts 231°
2026-04-20 22:59 35.39631 -97.59920 1299 ft 3 kts 272°
2026-04-20 22:59 35.39633 -97.59964 1299 ft 6 kts 272°
2026-04-20 22:59 35.39623 -97.60032 1299 ft 9 kts 242°
2026-04-20 22:59 35.39588 -97.60115 1299 ft 11 kts 246°
2026-04-20 23:00 35.39555 -97.60212 1299 ft 13 kts 246°
2026-04-20 23:00 35.39591 -97.60297 1299 ft 12 kts 316°
2026-04-20 23:00 35.39660 -97.60372 1299 ft 13 kts 338°
2026-04-20 23:00 35.39760 -97.60399 1299 ft 15 kts 359°
2026-04-20 23:01 35.39873 -97.60400 1299 ft 18 kts 359°
2026-04-20 23:01 35.40009 -97.60401 1299 ft 20 kts 359°
2026-04-20 23:01 35.40161 -97.60402 1299 ft 23 kts 359°
2026-04-20 23:01 35.40327 -97.60401 1299 ft 24 kts
2026-04-20 23:02 35.40496 -97.60401 1299 ft 23 kts
2026-04-20 23:02 35.40580 -97.60486 1299 ft 17 kts 271°
2026-04-20 23:02 35.40553 -97.60571 1299 ft 10 kts 182°
2026-04-20 23:02 35.40334 -97.60574 1299 ft 68 kts 180°
2026-04-20 23:03 35.39605 -97.60574 1299 ft 137 kts 180°
2026-04-20 23:03 35.38497 -97.60567 1479 ft 174 kts 180°
2026-04-20 23:03 35.37249 -97.60559 2245 ft 184 kts 181°
2026-04-20 23:03 35.35985 -97.60515 3022 ft 189 kts 179°
2026-04-20 23:04 35.34694 -97.60448 3858 ft 189 kts 165°
2026-04-20 23:04 35.33683 -97.59480 4665 ft 196 kts 118°
2026-04-20 23:04 35.33456 -97.57805 5234 ft 215 kts 93°
2026-04-20 23:04 35.33936 -97.55937 5424 ft 254 kts 53°
2026-04-20 23:05 35.35207 -97.54263 5833 ft 276 kts 51°
2026-04-20 23:05 35.36404 -97.52389 6436 ft 286 kts 56°
2026-04-20 23:05 35.37552 -97.50391 7190 ft 291 kts 57°
2026-04-20 23:05 35.38678 -97.48334 7947 ft 294 kts 58°
2026-04-20 23:06 35.39803 -97.46239 8669 ft 298 kts 58°
2026-04-20 23:06 35.40934 -97.44111 9401 ft 301 kts 58°
2026-04-20 23:06 35.42070 -97.41967 10152 ft 302 kts 58°
2026-04-20 23:06 35.43218 -97.39794 10867 ft 304 kts 57°
2026-04-20 23:07 35.44371 -97.37611 11430 ft 312 kts 57°
2026-04-20 23:07 35.45557 -97.35362 11946 ft 320 kts 56°
2026-04-20 23:07 35.46782 -97.33038 12495 ft 326 kts 57°
2026-04-20 23:07 35.48016 -97.30695 13056 ft 332 kts 57°
2026-04-20 23:08 35.49268 -97.28316 13641 ft 336 kts 56°
2026-04-20 23:08 35.50538 -97.25902 14230 ft 339 kts 56°
2026-04-20 23:08 35.51822 -97.23460 14807 ft 343 kts 56°
2026-04-20 23:08 35.53111 -97.21005 15384 ft 346 kts 56°
2026-04-20 23:09 35.54420 -97.18512 15966 ft 348 kts 56°
2026-04-20 23:09 35.55717 -97.16039 16508 ft 351 kts 55°
2026-04-20 23:09 35.57047 -97.13500 17041 ft 354 kts 55°
2026-04-20 23:09 35.58389 -97.10939 17586 ft 357 kts 55°
2026-04-20 23:10 35.59718 -97.08399 18120 ft 359 kts 55°
2026-04-20 23:10 35.61081 -97.05794 18622 ft 362 kts 55°
2026-04-20 23:10 35.62444 -97.03185 19084 ft 366 kts 55°
2026-04-20 23:10 35.63813 -97.00563 19564 ft 369 kts 55°
2026-04-20 23:11 35.65194 -96.97916 20039 ft 372 kts 55°
2026-04-20 23:11 35.66577 -96.95190 20498 ft 376 kts 58°
2026-04-20 23:11 35.67870 -96.92406 20945 ft 379 kts 58°
2026-04-20 23:11 35.69175 -96.89593 21381 ft 381 kts 58°
2026-04-20 23:12 35.70507 -96.86743 21825 ft 384 kts 57°
2026-04-20 23:12 35.71830 -96.83916 22239 ft 386 kts 57°
2026-04-20 23:12 35.73214 -96.81055 22639 ft 388 kts 52°
2026-04-20 23:12 35.74939 -96.78552 23014 ft 388 kts 45°
2026-04-20 23:13 35.76772 -96.76096 23473 ft 388 kts 44°
2026-04-20 23:13 35.78590 -96.73694 23834 ft 391 kts 44°
2026-04-20 23:13 35.80465 -96.71224 24180 ft 394 kts 44°
2026-04-20 23:13 35.82330 -96.68769 24547 ft 396 kts 44°
2026-04-20 23:14 35.84201 -96.66304 24889 ft 399 kts 43°
2026-04-20 23:14 35.86111 -96.63789 25219 ft 401 kts 43°
2026-04-20 23:14 35.88002 -96.61295 25550 ft 403 kts 43°
2026-04-20 23:14 35.89932 -96.58747 25871 ft 406 kts 43°
2026-04-20 23:15 35.91797 -96.56164 26174 ft 409 kts 46°
2026-04-20 23:15 35.93656 -96.53481 26490 ft 411 kts 45°
2026-04-20 23:15 35.95503 -96.50811 26787 ft 413 kts 45°
2026-04-20 23:15 35.97387 -96.48086 27080 ft 416 kts 45°
2026-04-20 23:16 35.99256 -96.45378 27343 ft 418 kts 45°
2026-04-20 23:16 36.01138 -96.42651 27652 ft 419 kts 45°
2026-04-20 23:16 36.03028 -96.39909 27980 ft 420 kts 45°
2026-04-20 23:16 36.04916 -96.37170 28208 ft 423 kts 45°
2026-04-20 23:17 36.06820 -96.34403 28441 ft 425 kts 45°
2026-04-20 23:17 36.08744 -96.31606 28678 ft 427 kts 45°
2026-04-20 23:17 36.10667 -96.28807 28931 ft 429 kts 45°
2026-04-20 23:17 36.12604 -96.25986 29180 ft 430 kts 45°
2026-04-20 23:18 36.14548 -96.23152 29384 ft 433 kts 45°
2026-04-20 23:18 36.16479 -96.20335 29598 ft 435 kts 45°
2026-04-20 23:18 36.18447 -96.17461 29827 ft 437 kts 45°
2026-04-20 23:18 36.20411 -96.14590 30028 ft 439 kts 45°
2026-04-20 23:19 36.22376 -96.11716 30255 ft 433 kts 45°
2026-04-20 23:19 36.24302 -96.08897 30497 ft 432 kts 45°
2026-04-20 23:19 36.26238 -96.06062 30810 ft 435 kts 45°
2026-04-20 23:19 36.28182 -96.03210 31212 ft 435 kts 45°
2026-04-20 23:20 36.30145 -96.00330 31601 ft 435 kts 45°
2026-04-20 23:20 36.32086 -95.97478 31986 ft 435 kts 45°
2026-04-20 23:20 36.34020 -95.94637 32351 ft 436 kts 45°
2026-04-20 23:20 36.35979 -95.91753 32657 ft 437 kts 45°
2026-04-20 23:21 36.37946 -95.88856 32968 ft 439 kts 45°
2026-04-20 23:21 36.39899 -95.85978 33283 ft 439 kts 45°
2026-04-20 23:21 36.41853 -95.83096 33579 ft 440 kts 45°
2026-04-20 23:21 36.43820 -95.80191 33882 ft 441 kts 45°
2026-04-20 23:22 36.45806 -95.77258 34198 ft 441 kts 45°
2026-04-20 23:22 36.47766 -95.74358 34481 ft 442 kts 45°
2026-04-20 23:22 36.49738 -95.71439 34767 ft 442 kts 45°
2026-04-20 23:22 36.51693 -95.68543 34900 ft 444 kts 44°
2026-04-20 23:23 36.53679 -95.65597 35023 ft 444 kts 44°
2026-04-20 23:23 36.55645 -95.62680 35166 ft 444 kts 44°
2026-04-20 23:23 36.59629 -95.56760 35209 ft 450 kts 44°
2026-04-20 23:24 36.63665 -95.50751 35206 ft 456 kts 44°
2026-04-20 23:24 36.67744 -95.44667 35210 ft 461 kts 44°
2026-04-20 23:25 36.71844 -95.38541 35196 ft 464 kts 44°
2026-04-20 23:25 36.75966 -95.32372 35183 ft 462 kts 45°
2026-04-20 23:26 36.80038 -95.26264 35186 ft 461 kts 45°
2026-04-20 23:26 36.84117 -95.20136 35186 ft 461 kts 45°
2026-04-20 23:27 36.88211 -95.13974 35188 ft 461 kts 45°
2026-04-20 23:27 36.92290 -95.07822 35188 ft 460 kts 45°
2026-04-20 23:28 36.96341 -95.01704 35189 ft 460 kts 44°
2026-04-20 23:28 37.00396 -94.95567 35196 ft 460 kts 44°
2026-04-20 23:29 37.04467 -94.89393 35204 ft 460 kts 44°
2026-04-20 23:29 37.08511 -94.83250 35211 ft 460 kts 44°
2026-04-20 23:30 37.12585 -94.77049 35225 ft 459 kts 44°
2026-04-20 23:30 37.16620 -94.70897 35221 ft 458 kts 44°
2026-04-20 23:31 37.20663 -94.64721 35217 ft 458 kts 44°
2026-04-20 23:31 37.24673 -94.58583 35212 ft 458 kts 44°
2026-04-20 23:32 37.28688 -94.52426 35206 ft 457 kts 44°
2026-04-20 23:32 37.32700 -94.46263 35207 ft 457 kts 44°
2026-04-20 23:33 37.36698 -94.40111 35207 ft 456 kts 44°
2026-04-20 23:33 37.40712 -94.33922 35205 ft 456 kts 45°
2026-04-20 23:34 37.44705 -94.27753 35201 ft 456 kts 45°
2026-04-20 23:34 37.48682 -94.21598 35201 ft 455 kts 45°
2026-04-20 23:35 37.54652 -94.12337 35199 ft 455 kts 45°
2026-04-20 23:36 37.58612 -94.06179 35200 ft 455 kts 45°
2026-04-20 23:36 37.62593 -93.99977 35203 ft 454 kts 45°
2026-04-20 23:37 37.66544 -93.93810 35205 ft 455 kts 45°
2026-04-20 23:37 37.70524 -93.87585 35208 ft 454 kts 44°
2026-04-20 23:38 37.74450 -93.81436 35210 ft 454 kts 44°
2026-04-20 23:38 37.78406 -93.75225 35208 ft 454 kts 44°
2026-04-20 23:39 37.82361 -93.69006 35201 ft 454 kts 44°
2026-04-20 23:39 37.86307 -93.62788 35194 ft 454 kts 45°
2026-04-20 23:40 37.90225 -93.56604 35188 ft 455 kts 45°
2026-04-20 23:40 37.94176 -93.50354 35183 ft 455 kts 45°
2026-04-20 23:41 37.98125 -93.44096 35183 ft 455 kts 45°
2026-04-20 23:41 38.02045 -93.37872 35194 ft 451 kts 44°
2026-04-20 23:42 38.05960 -93.31646 35185 ft 451 kts 45°
2026-04-20 23:42 38.09855 -93.25440 35183 ft 450 kts 45°
2026-04-20 23:43 38.13756 -93.19210 35191 ft 450 kts 45°
2026-04-20 23:43 38.17657 -93.12968 35194 ft 450 kts 44°
2026-04-20 23:44 38.21527 -93.06764 35197 ft 450 kts 44°
2026-04-20 23:44 38.25394 -93.00554 35203 ft 449 kts 44°
2026-04-20 23:45 38.29265 -92.94326 35202 ft 449 kts 44°
2026-04-20 23:45 38.33125 -92.88103 35199 ft 449 kts 44°
2026-04-20 23:46 38.36981 -92.81875 35197 ft 449 kts 44°
2026-04-20 23:46 38.40835 -92.75639 35198 ft 449 kts 44°
2026-04-20 23:47 38.44707 -92.69359 35188 ft 449 kts 44°
2026-04-20 23:47 38.48541 -92.63132 35187 ft 450 kts 44°
2026-04-20 23:48 38.52408 -92.56836 35187 ft 450 kts 44°
2026-04-20 23:48 38.56231 -92.50602 35187 ft 450 kts 44°
2026-04-20 23:49 38.60093 -92.44290 35187 ft 450 kts 44°
2026-04-20 23:49 38.63931 -92.38008 35187 ft 450 kts 44°
2026-04-20 23:50 38.67751 -92.31741 35179 ft 449 kts 44°
2026-04-20 23:50 38.71601 -92.25413 35178 ft 449 kts 44°
2026-04-20 23:51 38.75438 -92.19095 35178 ft 450 kts 44°
2026-04-20 23:51 38.79253 -92.12798 35177 ft 448 kts 44°
2026-04-20 23:52 38.83064 -92.06499 35181 ft 448 kts 44°
2026-04-20 23:52 38.86861 -92.00207 35182 ft 446 kts 44°
2026-04-20 23:53 38.90631 -91.93950 35184 ft 446 kts 44°
2026-04-20 23:53 38.94418 -91.87653 35181 ft 445 kts 44°
2026-04-20 23:54 38.98192 -91.81364 35178 ft 445 kts 44°
2026-04-20 23:54 39.01992 -91.75186 35173 ft 442 kts 41°
2026-04-20 23:55 39.05918 -91.69082 35168 ft 442 kts 41°
2026-04-20 23:55 39.09802 -91.63036 35167 ft 441 kts 41°
2026-04-20 23:56 39.13696 -91.56963 35185 ft 441 kts 41°
2026-04-20 23:56 39.17580 -91.50895 35183 ft 441 kts 41°
2026-04-20 23:57 39.21471 -91.44803 35182 ft 440 kts 41°
2026-04-20 23:57 39.25336 -91.38741 35182 ft 440 kts 41°
2026-04-20 23:58 39.29234 -91.32616 35173 ft 440 kts 42°
2026-04-20 23:58 39.33091 -91.26541 35173 ft 441 kts 42°
2026-04-20 23:59 39.36970 -91.20422 35173 ft 441 kts 42°
2026-04-20 23:59 39.40847 -91.14294 35181 ft 441 kts 42°
2026-04-21 00:00 39.44691 -91.08205 35193 ft 441 kts 42°
2026-04-21 00:00 39.48562 -91.02064 35204 ft 441 kts 42°
2026-04-21 00:01 39.52420 -90.95929 35215 ft 439 kts 42°
2026-04-21 00:01 39.56274 -90.89788 35219 ft 439 kts 42°
2026-04-21 00:02 39.60101 -90.83678 35219 ft 440 kts 42°
2026-04-21 00:02 39.63953 -90.77515 35220 ft 441 kts 42°
2026-04-21 00:03 39.67812 -90.71327 35219 ft 441 kts 42°
2026-04-21 00:03 39.71637 -90.65184 35219 ft 440 kts 42°
2026-04-21 00:04 39.75482 -90.58995 35219 ft 440 kts 42°
2026-04-21 00:04 39.79285 -90.52862 35219 ft 439 kts 42°
2026-04-21 00:05 39.83114 -90.46674 35219 ft 439 kts 42°
2026-04-21 00:05 39.86920 -90.40513 35220 ft 439 kts 42°
2026-04-21 00:06 39.90747 -90.34306 35218 ft 439 kts 43°
2026-04-21 00:06 39.94558 -90.28118 35210 ft 439 kts 42°
2026-04-21 00:07 39.98845 -90.22656 35234 ft 428 kts 33°
2026-04-21 00:07 40.03320 -90.17616 35220 ft 428 kts 32°
2026-04-21 00:08 40.07833 -90.12544 35221 ft 428 kts 32°
2026-04-21 00:08 40.12331 -90.07481 35239 ft 428 kts 32°
2026-04-21 00:09 40.16840 -90.02396 35241 ft 428 kts 32°
2026-04-21 00:09 40.21325 -89.97329 35242 ft 428 kts 32°
2026-04-21 00:10 40.25841 -89.92217 35242 ft 428 kts 32°
2026-04-21 00:10 40.30184 -89.87285 35035 ft 397 kts 32°
2026-04-21 00:10 40.32245 -89.84946 34797 ft 385 kts 31°
2026-04-21 00:11 40.34268 -89.82655 34318 ft 393 kts 31°
2026-04-21 00:11 40.36375 -89.80266 33843 ft 411 kts 32°
2026-04-21 00:11 40.38571 -89.77766 33378 ft 425 kts 32°
2026-04-21 00:11 40.40790 -89.75234 32896 ft 431 kts 32°
2026-04-21 00:12 40.43037 -89.72670 32401 ft 432 kts 32°
2026-04-21 00:12 40.45300 -89.70087 31888 ft 431 kts 32°
2026-04-21 00:12 40.47564 -89.67498 31365 ft 429 kts 32°
2026-04-21 00:12 40.49804 -89.64938 30848 ft 428 kts 32°
2026-04-21 00:13 40.52040 -89.62378 30332 ft 427 kts 32°
2026-04-21 00:13 40.54271 -89.59823 29820 ft 427 kts 32°
2026-04-21 00:13 40.56499 -89.57269 29309 ft 429 kts 32°
2026-04-21 00:13 40.58738 -89.54699 28799 ft 431 kts 32°
2026-04-21 00:14 40.60992 -89.52110 28289 ft 433 kts 33°
2026-04-21 00:14 40.63246 -89.49518 27784 ft 435 kts 33°
2026-04-21 00:14 40.65522 -89.46898 27271 ft 437 kts 33°
2026-04-21 00:14 40.67802 -89.44271 26763 ft 439 kts 33°
2026-04-21 00:15 40.70101 -89.41619 26250 ft 439 kts 33°
2026-04-21 00:15 40.72397 -89.38969 25738 ft 441 kts 33°
2026-04-21 00:15 40.74594 -89.36143 25474 ft 448 kts 40°
2026-04-21 00:15 40.76861 -89.33418 24790 ft 441 kts 30°
2026-04-21 00:16 40.79212 -89.30849 24150 ft 440 kts 34°
2026-04-21 00:16 40.81470 -89.28196 23434 ft 420 kts 34°
2026-04-21 00:16 40.83564 -89.25708 22892 ft 403 kts 34°
2026-04-21 00:16 40.85637 -89.23240 22108 ft 404 kts 34°
2026-04-21 00:17 40.87691 -89.20785 21777 ft 392 kts 34°
2026-04-21 00:17 40.89687 -89.18400 21266 ft 391 kts 34°
2026-04-21 00:17 40.91713 -89.15977 20876 ft 389 kts 34°
2026-04-21 00:17 40.93688 -89.13611 20440 ft 390 kts 34°
2026-04-21 00:18 40.95703 -89.11195 20014 ft 388 kts 34°
2026-04-21 00:18 40.97695 -89.08804 19579 ft 386 kts 34°
2026-04-21 00:18 40.99678 -89.06422 19155 ft 384 kts 34°
2026-04-21 00:18 41.01626 -89.04080 18734 ft 381 kts 35°
2026-04-21 00:19 41.03585 -89.01723 18312 ft 379 kts 34°
2026-04-21 00:19 41.05516 -88.99398 17891 ft 377 kts 34°
2026-04-21 00:19 41.07449 -88.97070 17470 ft 375 kts 35°
2026-04-21 00:19 41.09357 -88.94769 17055 ft 374 kts 35°
2026-04-21 00:20 41.11294 -88.92431 16642 ft 373 kts 35°
2026-04-21 00:20 41.13207 -88.90121 16224 ft 372 kts 35°
2026-04-21 00:20 41.15131 -88.87794 15559 ft 375 kts 35°
2026-04-21 00:20 41.17033 -88.85490 15185 ft 368 kts 35°
2026-04-21 00:21 41.18901 -88.83227 14745 ft 361 kts 35°
2026-04-21 00:21 41.20717 -88.81027 14351 ft 351 kts 35°
2026-04-21 00:21 41.22487 -88.78879 14043 ft 340 kts 35°
2026-04-21 00:21 41.24220 -88.76778 13649 ft 333 kts 35°
2026-04-21 00:22 41.25893 -88.74747 13297 ft 325 kts 35°
2026-04-21 00:22 41.27555 -88.72729 12935 ft 319 kts 35°
2026-04-21 00:22 41.29175 -88.70760 12589 ft 312 kts 35°
2026-04-21 00:22 41.30739 -88.68857 12256 ft 306 kts 34°
2026-04-21 00:23 41.32303 -88.66953 11924 ft 301 kts 34°
2026-04-21 00:23 41.33839 -88.65084 11603 ft 298 kts 35°
2026-04-21 00:23 41.35367 -88.63222 11292 ft 297 kts 35°
2026-04-21 00:23 41.36886 -88.61373 10993 ft 297 kts 35°
2026-04-21 00:24 41.38417 -88.59552 10967 ft 294 kts 35°
2026-04-21 00:24 41.39946 -88.57738 10969 ft 296 kts 35°
2026-04-21 00:24 41.41485 -88.55911 10975 ft 297 kts 35°
2026-04-21 00:24 41.43011 -88.54098 10982 ft 298 kts 35°
2026-04-21 00:25 41.44575 -88.52238 10974 ft 299 kts 35°
2026-04-21 00:25 41.46109 -88.50414 10977 ft 299 kts 35°
2026-04-21 00:25 41.47670 -88.48557 10975 ft 298 kts 35°
2026-04-21 00:25 41.49209 -88.46725 10975 ft 298 kts 35°
2026-04-21 00:26 41.50740 -88.44900 10976 ft 298 kts 35°
2026-04-21 00:26 41.52300 -88.43041 10975 ft 298 kts 35°
2026-04-21 00:26 41.53824 -88.41222 10976 ft 298 kts 35°
2026-04-21 00:26 41.55382 -88.39362 10975 ft 298 kts 35°
2026-04-21 00:27 41.56924 -88.37522 10981 ft 302 kts 35°
2026-04-21 00:27 41.58562 -88.35570 11026 ft 326 kts 35°
2026-04-21 00:27 41.60259 -88.33537 10976 ft 333 kts 36°
2026-04-21 00:27 41.62009 -88.31446 10987 ft 334 kts 36°
2026-04-21 00:28 41.63721 -88.29408 10967 ft 333 kts 36°
2026-04-21 00:28 41.65446 -88.27357 10972 ft 333 kts 36°
2026-04-21 00:28 41.67187 -88.25285 10969 ft 332 kts 36°
2026-04-21 00:28 41.68905 -88.23239 10970 ft 332 kts 36°
2026-04-21 00:29 41.70622 -88.21191 10969 ft 331 kts 36°
2026-04-21 00:29 41.72369 -88.19109 10970 ft 331 kts 36°
2026-04-21 00:29 41.74081 -88.17065 10969 ft 331 kts 36°
2026-04-21 00:29 41.75788 -88.15025 10971 ft 331 kts 36°
2026-04-21 00:30 41.77522 -88.12954 10970 ft 331 kts 36°
2026-04-21 00:30 41.79228 -88.10913 10970 ft 331 kts 36°
2026-04-21 00:30 41.80929 -88.08817 10968 ft 333 kts 38°
2026-04-21 00:30 41.82545 -88.06678 10953 ft 320 kts 38°
2026-04-21 00:31 41.84103 -88.04615 10888 ft 306 kts 38°
2026-04-21 00:31 41.85592 -88.02645 10512 ft 302 kts 38°
2026-04-21 00:31 41.87074 -88.00675 9952 ft 296 kts 41°
2026-04-21 00:31 41.88117 -87.98325 9383 ft 301 kts 72°
2026-04-21 00:32 41.88346 -87.95540 8950 ft 298 kts 85°
2026-04-21 00:32 41.88407 -87.92767 8441 ft 296 kts 88°
2026-04-21 00:32 41.88431 -87.90044 7930 ft 291 kts 89°
2026-04-21 00:32 41.88439 -87.87400 7458 ft 284 kts 89°
2026-04-21 00:33 41.88440 -87.84777 6987 ft 278 kts 90°
2026-04-21 00:33 41.88439 -87.82203 6516 ft 273 kts 90°
2026-04-21 00:33 41.88436 -87.79703 6057 ft 268 kts 91°
2026-04-21 00:33 41.88435 -87.77225 5591 ft 263 kts 91°
2026-04-21 00:34 41.88432 -87.74828 5240 ft 253 kts 91°
2026-04-21 00:34 41.88430 -87.72487 4849 ft 245 kts 92°
2026-04-21 00:34 41.88427 -87.70265 4566 ft 233 kts 92°
2026-04-21 00:34 41.88423 -87.68157 4329 ft 224 kts 92°
2026-04-21 00:35 41.88419 -87.66077 4107 ft 218 kts 92°
2026-04-21 00:35 41.88415 -87.64088 4053 ft 212 kts 93°
2026-04-21 00:35 41.88410 -87.62103 4062 ft 215 kts 92°
2026-04-21 00:35 41.88661 -87.60126 4025 ft 221 kts 62°
2026-04-21 00:36 41.89814 -87.58821 4068 ft 218 kts 16°
2026-04-21 00:36 41.91284 -87.58600 4094 ft 214 kts 359°
2026-04-21 00:36 41.92776 -87.58556 4044 ft 212 kts 358°
2026-04-21 00:36 41.94236 -87.58513 4052 ft 211 kts 358°
2026-04-21 00:37 41.95622 -87.58969 4018 ft 203 kts 319°
2026-04-21 00:37 41.96612 -87.60288 4101 ft 200 kts 303°
2026-04-21 00:37 41.97019 -87.61993 4036 ft 191 kts 269°
2026-04-21 00:37 41.96892 -87.63747 4061 ft 189 kts 255°
2026-04-21 00:38 41.96717 -87.65449 4120 ft 183 kts 266°
2026-04-21 00:38 41.96804 -87.67139 3879 ft 175 kts 270°
2026-04-21 00:38 41.96894 -87.68668 3634 ft 154 kts 270°
2026-04-21 00:38 41.96988 -87.70013 3424 ft 138 kts 270°
2026-04-21 00:39 41.97083 -87.71264 3261 ft 132 kts 270°
2026-04-21 00:39 41.97184 -87.72485 3114 ft 133 kts 270°
2026-04-21 00:39 41.97288 -87.73733 2957 ft 134 kts 270°
2026-04-21 00:39 41.97326 -87.74983 2773 ft 132 kts 254°
2026-04-21 00:40 41.97101 -87.76170 2606 ft 130 kts 248°
2026-04-21 00:40 41.96865 -87.77344 2476 ft 134 kts 260°
2026-04-21 00:40 41.96922 -87.78612 2277 ft 137 kts 270°
2026-04-21 00:40 41.97017 -87.79876 2074 ft 137 kts 270°
2026-04-21 00:41 41.97004 -87.81181 1855 ft 138 kts 258°
2026-04-21 00:41 41.96901 -87.82454 1674 ft 138 kts 262°
2026-04-21 00:41 41.96897 -87.83744 1469 ft 139 kts 265°
2026-04-21 00:41 41.96915 -87.85030 1241 ft 139 kts 267°
2026-04-21 00:42 41.96909 -87.86330 1014 ft 136 kts 263°
2026-04-21 00:42 41.96902 -87.87589 820 ft 136 kts 266°
2026-04-21 00:42 41.96907 -87.88865 676 ft 132 kts 268°
2026-04-21 00:42 41.96904 -87.89965 673 ft 100 kts 269°
2026-04-21 00:43 41.96903 -87.90697 673 ft 61 kts 270°
2026-04-21 00:43 41.96903 -87.91131 673 ft 31 kts 270°
2026-04-21 00:43 41.96988 -87.91314 673 ft 17 kts 324°
2026-04-21 00:43 41.97076 -87.91392 673 ft 12 kts 352°
2026-04-21 00:44 41.97136 -87.91322 673 ft 11 kts 48°
2026-04-21 00:44 41.97197 -87.91273 673 ft 10 kts 350°
2026-04-21 00:44 41.97271 -87.91325 673 ft 13 kts 326°
2026-04-21 00:45 41.97471 -87.91464 673 ft 17 kts 341°
2026-04-21 00:45 41.97577 -87.91431 673 ft 16 kts 43°
2026-04-21 00:45 41.97631 -87.91304 673 ft 14 kts 70°
2026-04-21 00:45 41.97668 -87.91220 673 ft 9 kts
2026-04-21 00:46 41.97695 -87.91201 673 ft 4 kts 91°
2026-04-21 00:46 41.97690 -87.91158 673 ft 5 kts 89°
2026-04-21 00:46 41.97690 -87.91129 673 ft 0 kts 90°